Satellite-Ground Cal/Val Site Overpasses Predictions

Prediction of Satellite NPP Overpassing Cal/Val Site: Antarctic Dome C

Ground Cal/Val Site Location: Latitude: -75.10, Longitude: 123.35; Satellite-Ground Site NADIR distance within 100 km.

Table of predicted overpasses for the next 14.0 days since TLE Epoch: 3/23/2013
Interval Starting Time Ending Time Minimum Distance Time Minimum Distance (km)
1 03/23/2013 14:54:00 03/23/2013 14:54:28 03/23/2013 14:54:14 26.05
2 03/24/2013 14:35:18 03/24/2013 14:35:35 03/24/2013 14:35:26 81.07
3 03/25/2013 07:36:52 03/25/2013 07:37:20 03/25/2013 07:37:06 36.65
4 03/26/2013 07:18:07 03/26/2013 07:18:27 03/26/2013 07:18:17 73.14
5 03/28/2013 15:00:25 03/28/2013 15:00:47 03/28/2013 15:00:36 63.42
6 03/29/2013 14:41:35 03/29/2013 14:42:01 03/29/2013 14:41:48 45.88
7 03/30/2013 07:43:16 03/30/2013 07:43:36 03/30/2013 07:43:26 72.08
8 03/31/2013 07:24:25 03/31/2013 07:24:52 03/31/2013 07:24:38 35.73
9 04/03/2013 14:47:53 04/03/2013 14:48:22 04/03/2013 14:48:08 10.01
